CW8944 Weather Reports


time (UTC)temp
C
wind
direction
speed
KPH
gust
KPH
rain 1hr
cm
rain 24hr
cm
rain mn
cm
humidity
%
barometer
mb
20260505002010 18 0 0.0 0.0 0.00 0.00 0.00 39 1005.8
20260505001532 18 0 0.0 0.0 0.00 0.00 0.00 38 1005.8
20260505001013 18 0 0.0 0.0 0.00 0.00 0.00 38 1005.7
20260505000510 18 0 0.0 0.0 0.00 0.00 0.00 38 1005.5
20260505000031 18 0 0.0 11.3 0.00 0.00 0.00 37 1005.5
20260504235511 19 0 0.0 11.3 0.00 0.00 0.00 37 1005.6
20260504235010 19 243 4.8 11.3 0.00 0.00 0.00 36 1005.4
20260504234536 19 263 3.2 9.7 0.00 0.00 0.00 36 1005.4
20260504234009 19 247 4.8 12.9 0.00 0.00 0.00 35 1005.3
20260504233508 19 245 3.2 12.9 0.00 0.00 0.00 35 1005.3
20260504233031 20 0 1.6 14.5 0.00 0.00 0.00 36 1005.3
20260504232510 20 247 4.8 17.7 0.00 0.00 0.00 35 1005.2
20260504232013 20 243 3.2 17.7 0.00 0.00 0.00 35 1005.2
20260504231538 20 254 4.8 11.3 0.00 0.00 0.00 34 1005.1
20260504231008 20 245 3.2 9.7 0.00 0.00 0.00 35 1005.1
20260504230510 20 245 1.6 12.9 0.00 0.00 0.00 34 1004.9
20260504230030 20 235 4.8 16.1 0.00 0.00 0.00 34 1004.9
20260504225518 20 238 8.0 16.1 0.00 0.00 0.00 33 1004.8
20260504225010 20 247 3.2 9.7 0.00 0.00 0.00 33 1004.7
20260504224532 20 251 3.2 11.3 0.00 0.00 0.00 33 1004.6
20260504224010 20 242 4.8 14.5 0.00 0.00 0.00 32 1004.7
20260504223511 20 219 4.8 17.7 0.00 0.00 0.00 33 1004.7
20260504223030 20 283 6.4 17.7 0.00 0.00 0.00 32 1004.5
20260504222508 20 237 3.2 16.1 0.00 0.00 0.00 33 1004.5
20260504222014 20 245 3.2 16.1 0.00 0.00 0.00 32 1004.5
20260504221530 20 252 3.2 14.5 0.00 0.00 0.00 34 1004.6
20260504221009 20 245 4.8 14.5 0.00 0.00 0.00 33 1004.8
20260504220514 21 265 6.4 19.3 0.00 0.00 0.00 32 1004.6
20260504220031 21 267 4.8 19.3 0.00 0.00 0.00 31 1004.7
20260504215513 21 294 1.6 17.7 0.00 0.00 0.00 32 1004.7
20260504215017 21 241 6.4 17.7 0.00 0.00 0.00 31 1004.7
20260504214537 21 243 6.4 22.5 0.00 0.00 0.00 31 1004.7
20260504214012 21 0 3.2 22.5 0.00 0.00 0.00 32 1004.7
20260504213514 21 259 4.8 20.9 0.00 0.00 0.00 31 1004.6
20260504213030 21 0 4.8 22.5 0.00 0.00 0.00 31 1004.5
20260504212515 21 254 12.9 22.5 0.00 0.00 0.00 30 1004.5
20260504212010 21 245 8.0 22.5 0.00 0.00 0.00 31 1004.7
20260504211530 21 254 8.0 22.5 0.00 0.00 0.00 31 1004.5
20260504211009 21 259 9.7 22.5 0.00 0.00 0.00 32 1004.5
20260504210513 20 252 6.4 20.9 0.00 0.00 0.00 33 1004.4
20260504210030 20 258 3.2 17.7 0.00 0.00 0.00 34 1004.6
20260504205511 20 0 6.4 22.5 0.00 0.00 0.00 32 1004.5
20260504205015 20 238 8.0 24.1 0.00 0.00 0.00 32 1004.5
20260504204604 21 275 9.7 24.1 0.00 0.00 0.00 32 1004.4
20260504204013 21 247 8.0 24.1 0.00 0.00 0.00 31 1004.4
20260504203513 21 254 9.7 24.1 0.00 0.00 0.00 32 1004.5
20260504203032 21 268 12.9 24.1 0.00 0.00 0.00 31 1004.5
20260504202509 21 256 6.4 19.3 0.00 0.00 0.00 32 1004.4
20260504202014 21 251 9.7 19.3 0.00 0.00 0.00 31 1004.5
20260504201530 21 252 6.4 14.5 0.00 0.00 0.00 31 1004.4
20260504201008 21 299 6.4 17.7 0.00 0.00 0.00 33 1004.4
20260504200511 21 251 1.6 19.3 0.00 0.00 0.00 33 1004.5
20260504200035 21 278 4.8 20.9 0.00 0.00 0.00 32 1004.5
20260504195512 21 250 6.4 25.7 0.00 0.00 0.00 32 1004.5
20260504195013 21 281 12.9 35.4 0.00 0.00 0.00 31 1004.6
20260504194534 21 266 9.7 35.4 0.00 0.00 0.00 32 1004.7
20260504194011 20 254 14.5 35.4 0.00 0.00 0.00 32 1004.7
20260504193510 20 256 9.7 32.2 0.00 0.00 0.00 33 1004.7
20260504193033 20 255 16.1 32.2 0.00 0.00 0.00 32 1004.7
20260504192511 20 282 6.4 40.2 0.00 0.00 0.00 34 1004.7
20260504192014 20 257 16.1 40.2 0.00 0.00 0.00 32 1004.7
20260504191531 20 290 6.4 16.1 0.00 0.00 0.00 33 1004.8
20260504191008 20 259 3.2 22.5 0.00 0.00 0.00 33 1004.8
20260504190509 20 257 8.0 22.5 0.00 0.00 0.00 32 1004.8
20260504190035 20 253 4.8 19.3 0.00 0.00 0.00 33 1004.8
20260504185511 20 257 9.7 22.5 0.00 0.00 0.00 33 1004.8
20260504185012 20 254 6.4 29.0 0.00 0.00 0.00 33 1005.0
20260504184528 20 238 8.0 29.0 0.00 0.00 0.00 33 1004.8
20260504184045 20 234 12.9 29.0 0.00 0.00 0.00 32 1004.7
20260504183514 20 0 0.0 20.9 0.00 0.00 0.00 34 1004.8
20260504183030 20 246 6.4 20.9 0.00 0.00 0.00 33 1004.9
20260504182509 20 233 6.4 25.7 0.00 0.00 0.00 33 1004.9
20260504182013 19 258 12.9 25.7 0.00 0.00 0.00 32 1004.8
20260504181530 19 248 9.7 29.0 0.00 0.00 0.00 33 1004.8
20260504181009 19 262 12.9 30.6 0.00 0.00 0.00 31 1004.9
20260504180514 20 238 11.3 30.6 0.00 0.00 0.00 31 1004.6
20260504180030 20 293 14.5 32.2 0.00 0.00 0.00 31 1004.8
20260504175508 20 234 11.3 35.4 0.00 0.00 0.00 31 1004.9
20260504175011 20 253 8.0 35.4 0.00 0.00 0.00 32 1004.8
20260504174530 20 224 12.9 38.6 0.00 0.00 0.00 31 1005.0
20260504174009 20 231 11.3 40.2 0.00 0.00 0.00 31 1005.0
20260504173509 20 242 16.1 40.2 0.00 0.00 0.00 31 1005.1
20260504173029 20 245 9.7 29.0 0.00 0.00 0.00 32 1005.1
20260504172509 20 261 9.7 32.2 0.00 0.00 0.00 33 1005.0
20260504172015 20 266 14.5 32.2 0.00 0.00 0.00 31 1005.0
20260504171540 20 251 4.8 29.0 0.00 0.00 0.00 32 1005.0
20260504171010 19 195 14.5 38.6 0.00 0.00 0.00 31 1005.0
20260504170513 20 241 14.5 38.6 0.00 0.00 0.00 31 1005.0
20260504151009 17 252 14.5 30.6 0.00 0.00 0.00 39 1006.0
20260504150515 17 221 9.7 35.4 0.00 0.00 0.00 40 1005.9
20260504141012 15 203 11.3 25.7 0.00 0.00 0.00 45 1007.0
20260504140512 15 263 6.4 27.4 0.00 0.00 0.00 46 1007.0
20260504130513 12 240 4.8 16.1 0.00 0.00 0.00 53 1007.7
20260504110509 6 244 3.2 8.0 0.00 0.00 0.00 66 1008.7
20260504100513 5 0 0.0 0.0 0.00 0.00 0.00 70 1008.3
20260504081533 4 0 1.6 6.4 0.00 0.00 0.00 74 1008.4
20260504081009 4 261 1.6 4.8 0.00 0.00 0.00 75 1008.3
20260504080510 4 261 1.6 4.8 0.00 0.00 0.00 76 1008.2
20260504050512 2 0 0.0 0.0 0.00 0.00 0.00 75 1008.0
20260504045511 2 0 0.0 4.8 0.00 0.00 0.00 75 1008.1
20260504045013 2 261 1.6 4.8 0.00 0.00 0.00 75 1008.0
20260504044538 2 261 1.6 6.4 0.00 0.00 0.00 75 1008.0
20260504044011 2 261 1.6 6.4 0.00 0.00 0.00 75 1008.1
20260504043512 2 261 1.6 4.8 0.00 0.00 0.00 74 1008.0
20260504043032 2 261 1.6 3.2 0.00 0.00 0.00 74 1008.1
20260504042509 2 261 0.0 4.8 0.00 0.00 0.00 74 1008.0
20260504042010 2 261 0.0 4.8 0.00 0.00 0.00 74 1008.1
20260504041533 2 261 0.0 6.4 0.00 0.00 0.00 73 1008.0
20260504041011 2 261 1.6 6.4 0.00 0.00 0.00 73 1007.9
20260504040513 3 278 1.6 6.4 0.00 0.00 0.00 73 1008.0
20260504040030 3 277 3.2 4.8 0.00 0.00 0.00 73 1007.9
20260504035510 3 277 1.6 6.4 0.00 0.00 0.00 73 1007.9
20260504035015 3 278 1.6 8.0 0.00 0.00 0.00 73 1007.9
20260504034535 3 278 3.2 8.0 0.00 0.00 0.00 72 1008.0
20260504034010 3 323 1.6 4.8 0.00 0.00 0.00 71 1007.9
20260504033512 3 323 1.6 4.8 0.00 0.00 0.00 70 1007.9
20260504033032 3 0 0.0 4.8 0.00 0.00 0.00 70 1007.8
20260504032509 3 323 1.6 4.8 0.00 0.00 0.00 69 1007.7
20260504032017 3 0 0.0 0.0 0.00 0.00 0.00 69 1007.7
20260504031532 3 0 0.0 0.0 0.00 0.00 0.00 69 1007.7
20260504031010 3 0 0.0 0.0 0.00 0.00 0.00 69 1007.7
20260504030511 3 0 0.0 0.0 0.00 0.00 0.00 69 1007.7
20260504030038 3 0 0.0 0.0 0.00 0.00 0.00 69 1007.7
20260504025510 3 0 0.0 0.0 0.00 0.00 0.00 68 1007.7
20260504025010 3 0 0.0 0.0 0.00 0.00 0.00 68 1007.7
20260504024530 3 0 0.0 0.0 0.00 0.00 0.00 68 1007.6
20260504024010 3 0 0.0 0.0 0.00 0.00 0.00 68 1007.7
20260504023511 3 0 0.0 0.0 0.00 0.00 0.00 67 1007.6
20260504023032 4 0 0.0 0.0 0.00 0.00 0.00 67 1007.6
20260504022509 4 0 0.0 0.0 0.00 0.00 0.00 67 1007.8
20260504022013 4 0 0.0 0.0 0.00 0.00 0.00 66 1007.8
20260504021533 4 0 0.0 0.0 0.00 0.00 0.00 65 1007.7
20260504021012 5 0 0.0 0.0 0.00 0.00 0.00 64 1007.7
20260504020511 5 0 0.0 0.0 0.00 0.00 0.00 63 1007.6
20260504020029 5 0 0.0 0.0 0.00 0.00 0.00 63 1007.6
20260504015509 5 0 0.0 0.0 0.00 0.20 0.00 63 1007.6
20260504015010 5 0 0.0 0.0 0.00 0.20 0.00 62 1007.6
20260504014531 5 0 0.0 0.0 0.00 0.20 0.00 60 1007.5
20260504014011 5 0 0.0 0.0 0.00 0.20 0.00 60 1007.4
20260504013510 5 0 0.0 0.0 0.00 0.20 0.00 60 1007.6
20260504013033 6 0 0.0 0.0 0.00 0.20 0.00 59 1007.7
20260504012515 6 0 0.0 0.0 0.00 0.20 0.00 59 1007.6
20260504012015 6 0 0.0 0.0 0.00 0.20 0.00 58 1007.6
20260504011528 6 0 0.0 3.2 0.00 0.20 0.00 57 1007.6
20260504011008 6 0 0.0 3.2 0.00 0.20 0.00 56 1007.6
20260504010508 7 323 0.0 3.2 0.00 0.20 0.00 55 1007.6
20260504010030 7 323 1.6 4.8 0.00 0.20 0.00 55 1007.5
20260504005510 7 323 1.6 4.8 0.00 0.28 0.00 54 1007.4
20260504005013 7 323 1.6 4.8 0.00 0.28 0.00 54 1007.3
20260504004532 7 323 0.0 6.4 0.00 0.28 0.00 54 1007.3
20260504004011 7 323 1.6 6.4 0.00 0.28 0.00 53 1007.2
20260504003515 7 332 1.6 4.8 0.00 0.28 0.00 54 1007.2
20260504003034 7 332 0.0 6.4 0.00 0.28 0.00 53 1007.0
20260504002510 7 332 0.0 6.4 0.00 0.28 0.00 52 1006.8